Showing default

PROTOMETHEE, 58321

Orbit data source: Space-Track

PROTOMETHEE, 58321 is a payload satellite owned by Promethee (FR) in SSO that was launched on Sat, 11 Nov 2023 UTC via an FALCON 9 launch vehicle from the Air Force Western Test Range (AFWTR). Payload-class satellites include a variety of spacecraft equipped with specific instruments for various scientific and technological missions. These include communications satellites like Starlink; space stations such as the ISS; scientific satellites like the Hubble; Earth observation satellites from companies like Planet Labs, Umbra, and HawkEye 360; GPS; miniature CubeSats for education and research; and military/defense satellites.

Loading next visibility...
Identifier
58321, 2023-174BT
Orbit
SSO
Country
Flag of FRFR
Related business
Manufacturer
NanoAvionics
Mission
Operational Commercial Imaging
Bus & Motor
CUBESAT 16U, Unknown motor
Mass
30 kg wet, ~30 kg dry
Launch date (UTC)
2023-11-11 (3 years ago)
Launch vehicle
FALCON 9
Launch site
Air Force Western Test Range (AFWTR)
Object type
Payload
Rocket body
Debris
Shape & HBR
Box + 2 Pan, 0.2 m
Radar Cross Section
0.100 m², Medium (>0.1 m² and < 1m²)

Expand to show TLE details & history
Last TLE update: 1 day ago

TLE from 1 day ago
0 PROTOMETHEE
1 58321U 23174BT  26172.52343289  .00020249  00000-0  66985-3 0  9994
2 58321  97.3765 250.9170 0008454 142.8195 217.3633 15.31337937145639
Epoch: 2026-06-21T12:33Z
TLE epoch observation values (Epoch: 2026-06-21T12:33:44.601Z)
Latitude
-0.00006°
Longitude
152.75869°
Altitude
479.532 km
Speed
7.623 km/s
True Right ascension
16h 43m 40s
True Declination
0° 00' 00"
Sunlit
Object was in full shadow at epoch
Visualization orbit readout
Latitude
Unknown
Longitude
Unknown
Altitude
Unknown
Speed
Unknown
Apparent Right ascension
Unknown
Apparent Declination
Unknown
Sunlit
N/A
Visualization observer readout
Local Sidereal Time
23:18:55
Azimuth
Unknown
Elevation
Unknown
Doppler factor
Unknown
Orbital elements
Apogee altitude
474.557 km
Perigee altitude
462.981 km
Semi-major axis
6,846.906 km
Eccentricity
0.00085
Inclination
97.3765°
RAAN
250.917°
Arg. of periapsis
142.8195°
True anomaly
217.30456°
Mean anomaly
217.3633°
Eccentric anomaly
217.33392°
Mean motion
3.83091 °/min
Orbital period
93.97 mins
BSTAR
0.00066985
Loading maneuver chart data...
Computing Atmospheric mass density...
Loading historical data...
Loading historical data...
Loading historical data...
Loading historical data...
Loading historical data...
Loading historical data...
Loading historical data...

Documentation

Showing up to 5 results
|